User: anonymous   Login
Location: ??????
(33.3472°N, 35.4764°E)
Time: 23:22:43
(UTC+00:00)
Language:

Cosmos 1802 Rocket - Orbit

View from above orbital plane
View from above orbital plane
View from above satellite
View from above satellite

Ground track
Ground track

The orbit data is extracted from the following two-line orbital elements,

1 17160U 86093B   19287.73213212 +.00000007 +00000-0 -83214-5 0  9990
2 17160 082.9277 154.0775 0037991 302.4238 121.2976 13.74626011649314
Epoch (UTC): 14 October 2019 17:34:16
Eccentricity: 0.0037991
inclination: 82.9277°
perigee height: 955 km
apogee height: 1011 km
right ascension of ascending node: 154.0775°
argument of perigee: 302.4238°
revolutions per day: 13.74626011
mean anomaly at epoch: 121.2976°
orbit number at epoch: 64931

The dashed part of the orbit path shows where the satellite is in the earth's shadow,  

DLR